Home   Weather   Dubrovnik   Past weeks

Flag for Croatia Past Weather in Dubrovnik, Croatia — Yesterday and Last 2 Weeks

Now
50 °F

Passing clouds.


Feels Like: 48 °F
Forecast: 42 / 52 °F
Wind: 5 mph from North

Location: Dubrovnik / Cilipi

Current Time: Dec 8, 2016 at 10:45:21 am

Latest Report: Dec 8, 2016 at 10:00 am


Visibility: N/A

Pressure: 30.60 "Hg

Humidity: 37%

Dew Point: 25 °F

Location of DubrovnikLocation

Past Weather in Dubrovnik — Graph

°F

Dubrovnik Temperature Yesterday

Maximum temperature yesterday: 57 °F (at 12:30 pm)
Minimum temperature yesterday: 46 °F (at 7:00 pm)
Average temperature yesterday: 51 °F

High & Low Weather Summary for the Past Weeks

 TemperatureHumidityPressure
High64 °F (Nov 23, 2:30 pm)100% (Nov 23, 6:00 pm)30.60 "Hg (Nov 23, 6:00 pm)
Low37 °F (Nov 29, 5:30 pm)13% (Dec 4, 12:30 pm)29.77 "Hg (Nov 28, 4:30 am)
Average51 °F59%30.16 "Hg
* Reported Nov 23 9:00 am — Dec 8 9:30 am, Dubrovnik, Weather by CustomWeather, © 2016

Note: Actual official high and low records may vary slightly from our data, if they occured in-between our weather recording intervals... More about our weather records

Advertising

Dubrovnik Weather History for the Previous 24 Hours

Scroll right to see more
 ConditionsComfort  
Time TempWeatherWind HumidityBarometerVisibility
9:30 am
Thu, Dec 8
48 °FSunny.N/A34%30.60 "Hg10 mi
9:00 am48 °FPassing clouds.13 mph43%30.60 "HgN/A
8:30 am46 °FPassing clouds.14 mph43%30.60 "HgN/A
8:00 am46 °FSunny.16 mph34%30.60 "Hg10 mi
7:30 am46 °FPassing clouds.12 mph37%30.60 "HgN/A
7:00 am46 °FPassing clouds.8 mph40%30.60 "HgN/A
6:30 am46 °FPassing clouds.9 mph46%30.57 "HgN/A
6:00 am46 °FPassing clouds.12 mph43%30.57 "HgN/A
5:30 am45 °FPassing clouds.13 mph42%30.57 "HgN/A
5:00 am45 °FClear.16 mph39%30.57 "Hg10 mi
4:30 am45 °FPassing clouds.14 mph42%30.57 "HgN/A
3:30 am46 °FPassing clouds.13 mph37%30.57 "HgN/A
2:30 am45 °FPassing clouds.16 mph37%30.57 "HgN/A
2:00 am45 °FPassing clouds.16 mph34%30.57 "HgN/A
1:30 am45 °FPassing clouds.14 mph37%30.57 "HgN/A
1:00 am45 °FPassing clouds.14 mph34%30.57 "HgN/A
12:30 am46 °FPassing clouds.17 mph32%30.54 "HgN/A
12:00 am46 °FPassing clouds.16 mph32%30.54 "HgN/A
11:30 pm
Wed, Dec 7
46 °FPassing clouds.16 mph32%30.54 "HgN/A
11:00 pm46 °FPassing clouds.16 mph32%30.54 "HgN/A
10:30 pm46 °FPassing clouds.18 mph32%30.54 "HgN/A
10:00 pm46 °FPassing clouds.18 mph32%30.54 "HgN/A
9:30 pm46 °FPassing clouds.17 mph32%30.51 "HgN/A
9:00 pm48 °FPassing clouds.15 mph32%30.51 "HgN/A
8:30 pm46 °FPassing clouds.18 mph34%30.51 "HgN/A
8:00 pm46 °FPassing clouds.21 mph34%30.51 "HgN/A
7:30 pm48 °FPassing clouds.21 mph29%30.51 "HgN/A
7:00 pm46 °FPassing clouds.22 mph34%30.48 "HgN/A
6:30 pm48 °FPassing clouds.23 mph32%30.48 "HgN/A
6:00 pm50 °FPassing clouds.21 mph28%30.48 "HgN/A
5:30 pm52 °FPassing clouds.20 mph26%30.48 "HgN/A
5:00 pm52 °FPassing clouds.16 mph26%30.45 "HgN/A
4:30 pm54 °FPassing clouds.15 mph24%30.45 "HgN/A
4:00 pm54 °FPassing clouds.12 mph24%30.45 "HgN/A
3:30 pm55 °FPassing clouds.5 mph38%30.42 "HgN/A
3:00 pm57 °FSunny.6 mph41%30.42 "Hg10 mi
2:30 pm57 °FSunny.14 mph25%30.42 "Hg10 mi
2:00 pm57 °FPassing clouds.15 mph27%30.42 "HgN/A
1:30 pm57 °FPassing clouds.14 mph29%30.42 "HgN/A
1:00 pm57 °FPassing clouds.20 mph29%30.42 "HgN/A
12:30 pm57 °FPassing clouds.20 mph29%30.42 "HgN/A
12:00 pm55 °FPassing clouds.20 mph31%30.42 "HgN/A
11:30 am55 °FPassing clouds.22 mph31%30.42 "HgN/A
11:00 am54 °FPassing clouds.22 mph33%30.42 "HgN/A
10:30 am54 °FPassing clouds.24 mph33%30.45 "HgN/A
10:00 am54 °FPassing clouds.24 mph30%30.42 "HgN/A
Weather by CustomWeather, © 2016

See weather overviewHow to use our weather pages